Time,TemperatureF,DewpointF,PressureIn,WindDirection,WindDirectionDegrees,WindSpeedMPH,WindSpeedGustMPH,Humidity,HourlyPrecipIn,Conditions,Clouds,dailyrainin,SolarRadiationWatts/m^2,SoftwareType,DateUTC
2013-06-10 00:13:00,80.0,42.0,-100.00,SE,146,3.0,8.0,26,0.00,,,0.00,502.000000,,2013-06-10 00:13:00,
2013-06-10 00:22:00,80.0,42.0,-100.00,SE,146,3.0,8.0,26,0.00,,,0.00,502.000000,,2013-06-10 00:22:00,
2013-06-10 00:32:00,80.0,42.0,-100.00,SE,146,3.0,8.0,26,0.00,,,0.00,502.000000,,2013-06-10 00:32:00,
2013-06-10 00:42:00,80.0,42.0,-100.00,SE,146,3.0,8.0,26,0.00,,,0.00,502.000000,,2013-06-10 00:42:00,
2013-06-10 00:52:00,80.0,42.0,-100.00,SE,146,3.0,8.0,26,0.00,,,0.00,502.000000,,2013-06-10 00:52:00,
2013-06-10 01:22:00,80.0,40.0,-100.00,South,182,3.0,9.0,24,0.00,,,0.00,310.000000,,2013-06-10 01:22:00,
2013-06-10 01:32:00,80.0,40.0,-100.00,South,182,3.0,9.0,24,0.00,,,0.00,310.000000,,2013-06-10 01:32:00,
2013-06-10 01:43:00,80.0,40.0,-100.00,South,182,3.0,9.0,24,0.00,,,0.00,310.000000,,2013-06-10 01:43:00,
2013-06-10 01:52:00,80.0,40.0,-100.00,South,182,3.0,9.0,24,0.00,,,0.00,310.000000,,2013-06-10 01:52:00,
2013-06-10 02:22:00,73.0,49.0,-100.00,ESE,121,5.0,11.0,42,0.00,,,0.00,118.000000,,2013-06-10 02:22:00,
2013-06-10 02:32:00,73.0,49.0,-100.00,ESE,121,5.0,11.0,42,0.00,,,0.00,118.000000,,2013-06-10 02:32:00,
2013-06-10 02:42:00,73.0,49.0,-100.00,ESE,121,5.0,11.0,42,0.00,,,0.00,118.000000,,2013-06-10 02:42:00,
2013-06-10 02:52:00,73.0,49.0,-100.00,ESE,121,5.0,11.0,42,0.00,,,0.00,118.000000,,2013-06-10 02:52:00,
2013-06-10 03:22:00,68.0,49.0,-100.00,SSE,147,6.0,12.0,50,0.00,,,0.00,8.000000,,2013-06-10 03:22:00,
2013-06-10 03:33:00,68.0,49.0,-100.00,SSE,147,6.0,12.0,50,0.00,,,0.00,8.000000,,2013-06-10 03:33:00,
2013-06-10 03:43:00,68.0,49.0,-100.00,SSE,147,6.0,12.0,50,0.00,,,0.00,8.000000,,2013-06-10 03:43:00,
2013-06-10 03:53:00,68.0,49.0,-100.00,SSE,147,6.0,12.0,50,0.00,,,0.00,8.000000,,2013-06-10 03:53:00,
2013-06-10 04:23:00,68.0,48.0,-100.00,South,172,6.0,16.0,49,0.00,,,-99.99,0.000000,,2013-06-10 04:23:00,
2013-06-10 04:33:00,68.0,48.0,-100.00,South,172,6.0,16.0,49,0.00,,,-99.99,0.000000,,2013-06-10 04:33:00,
2013-06-10 04:42:00,68.0,48.0,-100.00,South,172,6.0,16.0,49,0.00,,,-99.99,0.000000,,2013-06-10 04:42:00,
2013-06-10 04:52:00,68.0,48.0,-100.00,South,172,6.0,16.0,49,0.00,,,-99.99,0.000000,,2013-06-10 04:52:00,
2013-06-10 05:22:00,68.0,48.0,-100.00,SSW,213,6.0,14.0,48,0.00,,,0.00,0.000000,,2013-06-10 05:22:00,
2013-06-10 05:32:00,68.0,48.0,-100.00,SSW,213,6.0,14.0,48,0.00,,,0.00,0.000000,,2013-06-10 05:32:00,
2013-06-10 05:42:00,68.0,48.0,-100.00,SSW,213,6.0,14.0,48,0.00,,,0.00,0.000000,,2013-06-10 05:42:00,
2013-06-10 05:52:00,68.0,48.0,-100.00,SSW,213,6.0,14.0,48,0.00,,,0.00,0.000000,,2013-06-10 05:52:00,
2013-06-10 06:22:00,67.0,47.0,-100.00,West,280,5.0,15.0,48,0.00,,,0.00,0.000000,,2013-06-10 06:22:00,
2013-06-10 06:32:00,67.0,47.0,-100.00,West,280,5.0,15.0,48,0.00,,,0.00,0.000000,,2013-06-10 06:32:00,
2013-06-10 06:42:00,67.0,47.0,-100.00,West,280,5.0,15.0,48,0.00,,,0.00,0.000000,,2013-06-10 06:42:00,
2013-06-10 06:52:00,67.0,47.0,-100.00,West,280,5.0,15.0,48,0.00,,,0.00,0.000000,,2013-06-10 06:52:00,
2013-06-10 07:22:00,67.0,47.0,-100.00,WSW,237,6.0,15.0,48,0.00,,,0.00,0.000000,,2013-06-10 07:22:00,
2013-06-10 07:32:00,67.0,47.0,-100.00,WSW,237,6.0,15.0,48,0.00,,,0.00,0.000000,,2013-06-10 07:32:00,
2013-06-10 07:42:00,67.0,47.0,-100.00,WSW,237,6.0,15.0,48,0.00,,,0.00,0.000000,,2013-06-10 07:42:00,
2013-06-10 07:52:00,67.0,47.0,-100.00,WSW,237,6.0,15.0,48,0.00,,,0.00,0.000000,,2013-06-10 07:52:00,
2013-06-10 08:22:00,66.0,46.0,-100.00,SSW,209,7.0,16.0,48,0.00,,,0.00,0.000000,,2013-06-10 08:22:00,
2013-06-10 08:32:00,66.0,46.0,-100.00,SSW,209,7.0,16.0,48,0.00,,,0.00,0.000000,,2013-06-10 08:32:00,
2013-06-10 08:42:00,66.0,46.0,-100.00,SSW,209,7.0,16.0,48,0.00,,,0.00,0.000000,,2013-06-10 08:42:00,
2013-06-10 08:52:00,66.0,46.0,-100.00,SSW,209,7.0,16.0,48,0.00,,,0.00,0.000000,,2013-06-10 08:52:00,
2013-06-10 09:22:00,64.0,44.0,-100.00,SSE,155,3.0,14.0,49,0.00,,,0.00,0.000000,,2013-06-10 09:22:00,
2013-06-10 09:32:00,64.0,44.0,-100.00,SSE,155,3.0,14.0,49,0.00,,,0.00,0.000000,,2013-06-10 09:32:00,
2013-06-10 09:42:00,64.0,44.0,-100.00,SSE,155,3.0,14.0,49,0.00,,,0.00,0.000000,,2013-06-10 09:42:00,
2013-06-10 09:53:00,64.0,44.0,-100.00,SSE,155,3.0,14.0,49,0.00,,,0.00,0.000000,,2013-06-10 09:53:00,
2013-06-10 10:22:00,62.0,45.0,-100.00,East,100,3.0,7.0,53,0.00,,,0.00,0.000000,,2013-06-10 10:22:00,
2013-06-10 10:33:00,62.0,45.0,-100.00,East,100,3.0,7.0,53,0.00,,,0.00,0.000000,,2013-06-10 10:33:00,
2013-06-10 10:42:00,62.0,45.0,-100.00,East,100,3.0,7.0,53,0.00,,,0.00,0.000000,,2013-06-10 10:42:00,
2013-06-10 10:52:00,62.0,45.0,-100.00,East,100,3.0,7.0,53,0.00,,,0.00,0.000000,,2013-06-10 10:52:00,
2013-06-10 14:22:00,67.0,49.0,-100.00,WNW,301,2.0,5.0,52,-99.99,,,0.00,213.000000,,2013-06-10 14:22:00,
2013-06-10 14:32:00,67.0,49.0,-100.00,WNW,301,2.0,5.0,52,-99.99,,,0.00,213.000000,,2013-06-10 14:32:00,
2013-06-10 14:42:00,67.0,49.0,-100.00,WNW,301,2.0,5.0,52,-99.99,,,0.00,213.000000,,2013-06-10 14:42:00,
2013-06-10 14:52:00,67.0,49.0,-100.00,WNW,301,2.0,5.0,52,-99.99,,,0.00,213.000000,,2013-06-10 14:52:00,
2013-06-10 15:22:00,72.0,50.0,-100.00,WNW,301,4.0,8.0,46,0.00,,,0.00,452.000000,,2013-06-10 15:22:00,
2013-06-10 15:33:00,72.0,50.0,-100.00,WNW,301,4.0,8.0,46,0.00,,,0.00,452.000000,,2013-06-10 15:33:00,
2013-06-10 15:43:00,72.0,50.0,-100.00,WNW,301,4.0,8.0,46,0.00,,,0.00,452.000000,,2013-06-10 15:43:00,
2013-06-10 15:53:00,72.0,50.0,-100.00,WNW,301,4.0,8.0,46,0.00,,,0.00,452.000000,,2013-06-10 15:53:00,
2013-06-10 16:23:00,77.0,51.0,-100.00,NNW,340,3.0,9.0,41,0.00,,,0.00,629.000000,,2013-06-10 16:23:00,
2013-06-10 16:33:00,77.0,51.0,-100.00,NNW,340,3.0,9.0,41,0.00,,,0.00,629.000000,,2013-06-10 16:33:00,
2013-06-10 16:43:00,77.0,51.0,-100.00,NNW,340,3.0,9.0,41,0.00,,,0.00,629.000000,,2013-06-10 16:43:00,
2013-06-10 16:52:00,77.0,51.0,-100.00,NNW,340,3.0,9.0,41,0.00,,,0.00,629.000000,,2013-06-10 16:52:00,
2013-06-10 16:57:00,75.0,53.0,-100.00,SSW,206,5.0,10.0,47,0.00,,,0.00,630.000000,,2013-06-10 16:57:00,
2013-06-10 17:27:00,75.0,53.0,-100.00,SSW,206,5.0,10.0,47,0.00,,,0.00,630.000000,,2013-06-10 17:27:00,
2013-06-10 17:38:00,75.0,53.0,-100.00,SSW,206,5.0,10.0,47,0.00,,,0.00,630.000000,,2013-06-10 17:38:00,
2013-06-10 17:48:00,75.0,53.0,-100.00,SSW,206,5.0,10.0,47,0.00,,,0.00,630.000000,,2013-06-10 17:48:00,
2013-06-10 18:25:00,78.0,54.0,-100.00,SW,215,5.0,12.0,43,0.00,,,0.00,855.000000,,2013-06-10 18:25:00,
2013-06-10 18:35:00,78.0,54.0,-100.00,SW,215,5.0,12.0,43,0.00,,,0.00,855.000000,,2013-06-10 18:35:00,
2013-06-10 18:48:00,78.0,54.0,-100.00,SW,215,5.0,12.0,43,0.00,,,0.00,855.000000,,2013-06-10 18:48:00,
2013-06-10 18:55:00,78.0,54.0,-100.00,SW,215,5.0,12.0,43,0.00,,,0.00,855.000000,,2013-06-10 18:55:00,
2013-06-10 19:22:00,81.0,53.0,-100.00,SSE,168,4.0,13.0,38,0.00,,,0.00,955.000000,,2013-06-10 19:22:00,
2013-06-10 19:33:00,81.0,53.0,-100.00,SSE,168,4.0,13.0,38,0.00,,,0.00,955.000000,,2013-06-10 19:33:00,
2013-06-10 19:43:00,81.0,53.0,-100.00,SSE,168,4.0,13.0,38,0.00,,,0.00,955.000000,,2013-06-10 19:43:00,
2013-06-10 19:52:00,81.0,53.0,-100.00,SSE,168,4.0,13.0,38,0.00,,,0.00,955.000000,,2013-06-10 19:52:00,
2013-06-10 20:23:00,82.0,52.0,-100.00,SSE,166,5.0,12.0,36,0.00,,,0.00,792.000000,,2013-06-10 20:23:00,
2013-06-10 20:32:00,82.0,52.0,-100.00,SSE,166,5.0,12.0,36,0.00,,,0.00,792.000000,,2013-06-10 20:32:00,
2013-06-10 20:43:00,82.0,52.0,-100.00,SSE,166,5.0,12.0,36,0.00,,,0.00,792.000000,,2013-06-10 20:43:00,
2013-06-10 20:52:00,82.0,52.0,-100.00,SSE,166,5.0,12.0,36,0.00,,,0.00,792.000000,,2013-06-10 20:52:00,
2013-06-10 21:23:00,86.0,51.0,-100.00,WSW,240,3.0,10.0,30,0.00,,,0.00,899.000000,,2013-06-10 21:23:00,
2013-06-10 21:33:00,86.0,51.0,-100.00,WSW,240,3.0,10.0,30,0.00,,,0.00,899.000000,,2013-06-10 21:33:00,
2013-06-10 21:43:00,86.0,51.0,-100.00,WSW,240,3.0,10.0,30,0.00,,,0.00,899.000000,,2013-06-10 21:43:00,
2013-06-10 21:53:00,86.0,51.0,-100.00,WSW,240,3.0,10.0,30,0.00,,,0.00,899.000000,,2013-06-10 21:53:00,
2013-06-10 22:22:00,86.0,53.0,-100.00,South,179,6.0,12.0,32,0.00,,,0.00,771.000000,,2013-06-10 22:22:00,
2013-06-10 22:33:00,86.0,53.0,-100.00,South,179,6.0,12.0,32,0.00,,,0.00,771.000000,,2013-06-10 22:33:00,
2013-06-10 22:42:00,86.0,53.0,-100.00,South,179,6.0,12.0,32,0.00,,,0.00,771.000000,,2013-06-10 22:42:00,
2013-06-10 22:52:00,86.0,53.0,-100.00,South,179,6.0,12.0,32,0.00,,,0.00,771.000000,,2013-06-10 22:52:00,
2013-06-10 23:22:00,83.0,55.0,-100.00,WNW,287,6.0,15.0,38,0.00,,,0.00,522.000000,,2013-06-10 23:22:00,
2013-06-10 23:32:00,83.0,55.0,-100.00,WNW,287,6.0,15.0,38,0.00,,,0.00,522.000000,,2013-06-10 23:32:00,
2013-06-10 23:42:00,83.0,55.0,-100.00,WNW,287,6.0,15.0,38,0.00,,,0.00,522.000000,,2013-06-10 23:42:00,
2013-06-10 23:52:00,83.0,55.0,-100.00,WNW,287,6.0,15.0,38,0.00,,,0.00,522.000000,,2013-06-10 23:52:00,